EHI
0 0 0 0 0 0 0 0 0 0 0 0 0 0 0 0 0 0 0 0 0 0 0 0 0 0 0 0 0 0 0 0 0 0 0 0 0 0 0 0 0 0 0 0
0 0 0 0 0 0 0 0 0 0 0 0 0 0 0 0 0 0 0 0 0 0 0 0 0 0 0 0 0 0 0 0 0 0 0 0 0 0 0 0 0 0 0 0
0 0 0 0 0 0 0 0 0 0 0 0 0 0 0 0 0 0 1 1 1 0 0 0 0 0 0 0 0 0 0 0 0 0 0 0 0 0 0 0 0 0 0 0
0 0 0 0 0 0 0 0 0 0 0 0 0 0 0 0 0 0 2 2 1 0 0 0 0 0 0 0 0 0 0 0 0 0 0 0 0 0 0 0 0 0 0 0
0 0 0 0 0 0 0 0 0 0 0 0 0 0 0 0 0 0 1 1 1 0 0 0 0 0 0 0 0 0 0 0 0 0 0 0 0 0 0 0 0 0 0 0
0 0 0 0 0 0 0 0 0 0 0 0 0 0 0 0 0 0 0 0 0 0 0 0 0 0 0 0 0 0 0 0 0 0 0 0 0 0 0 0 0 0 0 0
0 0 0 0 0 0 0 0 0 0 0 0 0 0 0 0 0 0 0 0 0 0 0 0 0 0 0 0 0 0 0 0 0 0 0 0 0 0 0 0 0 0 0 0
0 0 0 0 0 0 0 0 0 0 0 0 0 0 0 0 0 0 0 0 0 0 0 0 0 0 0 0 0 0 0 0 0 0 0 0 0 0 0 0 0 0 0 0
0 0 0 0 0 0 0 0 0 0 0 0 0 0 0 0 0 0 0 0 0 0 0 0 0 0 0 0 0 0 0 0 0 0 0 0 0 0 0 0 0 0 0 0
0 0 0 0 0 0 0 0 0 0 0 0 0 0 0 0 0 0 0 0 0 0 0 0 0 0 0 0 0 0 0 0 0 0 0 0 0 0 0 0 0 0 0 0
0 0 0 0 0 0 0 0 0 0 0 0 0 0 0 0 0 0 0 0 0 0 0 0 0 0 0 0 0 0 0 0 0 0 0 0 0 0 0 0 0 0 0 0
0 0 0 0 0 0 0 0 0 0 0 0 0 0 0 0 0 0 0 0 0 0 0 0 0 0 0 0 0 0 0 0 0 0 0 0 0 0 0 0 0 0 0 0
0 0 0 0 0 0 0 0 0 0 0 0 0 0 0 0 0 0 0 0 0 0 0 0 0 0 0 0 0 0 0 0 0 0 0 0 0 0 0 0 0 0 0 0
0 0 0 0 0 0 0 0 0 0 0 0 0 0 0 0 0 0 0 0 0 0 0 0 0 0 0 0 0 0 0 0 0 0 0 0 0 0 0 0 0 0 0 0
0 0 0 0 0 0 0 0 0 0 0 0 0 0 0 0 0 0 0 0 0 0 0 0 0 0 0 0 0 0 0 0 0 0 0 0 0 0 0 0 0 0 0 0
0 0 0 0 0 0 0 0 0 0 0 0 0 0 0 0 0 0 0 0 0 0 0 0 0 0 1 1 1 0 0 0 0 0 0 0 0 0 0 0 0 0 0 0
0 0 0 0 0 0 0 0 0 0 0 0 0 0 0 0 0 0 0 0 0 0 0 0 0 1 2 2 2 1 0 0 0 0 0 0 0 0 0 0 0 0 0 0
0 0 0 0 0 0 0 0 0 0 0 0 0 0 0 0 0 0 0 0 0 0 0 0 1 2 3 3 2 1 0 0 0 0 0 0 0 0 0 0 0 0 0 0
0 0 0 0 0 0 0 0 0 0 0 0 0 0 0 0 0 0 0 0 0 0 0 0 1 2 2 2 1 0 0 0 0 0 0 0 0 0 0 0 0 0 0 0
0 0 0 0 0 0 0 0 0 0 0 0 0 0 0 0 0 0 0 0 0 0 0 0 0 1 1 1 0 0 0 0 0 0 0 0 0 0 0 0 0 0 0 0
0 0 0 0 0 0 0 0 0 0 0 0 0 0 0 0 0 0 0 0 0 0 0 0 0 0 0 0 0 0 0 0 0 0 0 0 0 0 0 0 0 0 0 0
0 0 0 0 0 0 0 0 0 0 0 0 0 0 0 0 0 0 0 0 0 0 0 0 0 0 0 0 0 0 0 0 0 0 0 0 0 0 0 0 0 0 0 0
0 0 0 0 0 0 0 0 0 0 0 0 0 0 0 0 0 0 0 0 0 0 0 0 0 0 0 0 0 0 0 0 0 0 0 0 0 0 0 0 0 0 0 0
0 0 0 0 0 0 0 0 0 0 0 0 0 0 1 1 1 0 0 0 0 0 0 0 0 0 0 0 0 0 0 0 0 0 0 0 0 0 0 0 0 0 0 0
0 0 0 0 0 0 0 0 0 0 0 0 0 0 1 1 1 0 0 0 0 0 0 0 0 0 0 0 0 0 0 0 0 0 0 0 0 0 0 0 0 0 0 0
0 0 0 0 0 0 0 0 0 0 0 0 0 0 0 1 0 0 0 0 0 0 0 0 0 0 0 0 0 0 0 0 0 0 0 0 0 0 0 0 0 0 0 0
Wind_Speed
2 4 2 3 3 4 6 5 3 0 1 2 5 5 5 5 5 6 6 6 7 6 5 5 7 6 6 5 5 5 5 4 4 3 3 3 2 2 2 3 4 5 5 5
4 2 2 3 4 5 7 6 3 1 0 2 3 2 3 4 6 8 9 8 8 6 4 5 6 6 6 6 5 5 5 4 4 3 2 2 2 1 1 2 4 5 5 5
3 2 3 5 4 5 4 6 6 4 1 2 3 1 2 3 3 5 8 8 8 10 9 7 6 6 6 6 6 5 4 4 4 4 3 3 3 3 3 3 2 3 4 5
2 1 3 4 3 4 2 5 8 7 3 1 2 2 5 5 4 7 8 8 9 9 8 7 7 6 6 6 6 6 5 4 4 5 5 5 3 2 1 1 1 2 4 4
1 2 3 2 2 4 3 5 6 4 3 1 1 2 6 3 6 9 10 11 10 9 10 9 8 8 6 6 6 5 5 4 4 4 5 5 3 2 1 1 2 2 3 3
1 2 2 2 2 4 6 5 4 4 3 0 4 3 6 6 10 9 10 11 11 10 9 8 7 6 5 5 5 5 5 4 4 5 5 5 6 4 3 2 1 1 1 2
3 1 1 3 4 2 4 5 3 2 2 4 3 3 8 9 9 12 12 12 11 10 9 8 8 7 7 7 6 6 6 5 4 5 4 5 6 6 5 4 3 2 1 1
2 2 3 3 4 4 3 6 5 3 3 3 1 4 8 6 7 9 9 10 10 10 10 10 10 9 8 8 7 6 6 5 5 5 4 4 5 4 3 4 3 3 2 2
4 3 3 4 4 6 3 2 4 4 1 1 3 4 6 2 4 7 8 9 10 11 11 11 10 9 9 9 8 8 7 5 5 5 5 4 4 4 4 3 3 2 2 2
5 2 2 2 3 1 5 5 4 3 2 1 3 3 4 4 5 7 9 10 10 10 10 10 10 10 9 8 7 7 7 7 5 5 5 4 4 4 4 4 4 3 2 2
4 3 1 1 3 4 2 2 3 2 3 3 2 6 6 8 8 10 10 11 11 11 12 11 10 9 8 7 7 7 6 5 5 5 4 5 4 4 4 4 4 4 3 3
4 5 1 4 4 5 5 5 6 4 3 3 2 7 6 6 7 8 9 9 9 10 10 9 9 8 7 8 7 7 7 6 6 5 5 5 4 4 4 4 4 4 3 3
5 6 3 4 4 1 3 4 5 5 3 2 3 6 4 2 4 6 8 8 7 8 7 7 7 8 8 8 7 7 7 7 6 5 5 5 4 4 4 4 4 4 4 3
6 5 6 6 7 5 4 4 4 5 3 3 5 5 3 2 5 5 6 7 7 8 8 8 8 8 8 8 8 7 7 7 6 6 6 6 6 5 5 4 4 4 4 4
5 3 4 6 6 4 5 6 6 5 7 6 6 5 7 7 9 8 8 8 8 8 8 9 9 9 8 7 7 7 6 6 7 6 6 7 6 5 5 4 4 4 4 4
4 3 1 3 5 4 4 6 7 6 5 5 4 5 6 4 4 5 7 9 9 9 10 10 9 9 9 8 8 7 7 6 6 7 7 6 6 6 6 5 5 4 4 3
4 4 2 3 4 1 4 7 7 5 5 6 7 8 4 4 6 8 9 9 10 10 9 10 10 10 10 9 9 9 8 6 6 7 6 6 6 6 6 6 5 5 4 4
7 5 4 1 2 2 8 5 5 5 3 4 4 5 6 7 7 6 7 9 9 9 9 9 9 9 8 7 7 6 6 7 7 6 6 6 6 6 5 5 5 5 4 4
7 8 4 3 2 4 7 4 3 5 2 2 4 4 4 4 5 2 2 6 9 9 9 8 8 8 8 8 7 7 6 6 7 7 7 7 7 6 6 6 6 5 4 4
4 5 6 4 3 5 7 5 1 6 1 4 3 5 5 6 4 4 4 4 4 5 5 6 6 6 7 7 7 8 7 7 8 8 7 7 7 7 7 7 6 4 4 4
2 3 4 5 4 7 8 4 3 4 6 3 3 5 6 5 6 5 4 4 4 4 4 5 6 7 7 7 8 8 8 9 9 6 6 6 6 6 6 5 4 4 4 4
7 5 5 5 4 8 5 3 5 7 4 2 3 4 5 4 3 3 4 4 4 4 4 5 6 6 5 7 9 8 9 7 5 6 6 6 5 5 5 5 4 4 5 4
6 8 7 8 8 6 2 4 4 5 4 3 3 3 4 4 3 3 3 3 3 4 4 4 5 5 4 6 8 9 7 5 6 6 6 5 5 4 5 5 5 4 4 4
3 2 4 1 3 2 1 2 2 4 4 4 4 4 4 4 4 3 3 3 3 3 4 4 5 5 4 5 6 6 6 6 7 6 6 5 5 4 4 4 4 4 4 4
4 2 3 1 2 1 2 0 2 2 3 4 3 3 4 4 3 4 4 3 3 3 3 4 5 5 5 4 4 4 5 7 7 6 5 5 5 5 4 4 4 5 6 7
3 5 6 6 7 5 4 3 3 5 3 4 4 3 2 4 4 4 3 3 3 3 3 3 3 4 4 4 4 4 5 7 7 5 5 4 4 3 3 3 2 4 5 7
Wind_Direction
42 73 105 193 183 161 146 126 120 173 257 125 147 165 184 178 165 164 170 169 160 165 176 155 146 141 131 124 121 125 122 123 116 103 97 86 67 43 38 43 46 47 49 53
51 65 194 156 135 133 129 121 122 111 165 122 135 187 203 189 189 182 183 180 171 167 167 157 148 145 146 144 138 135 137 136 132 131 133 129 121 91 62 33 38 40 49 52
131 204 150 119 124 128 141 151 158 154 100 54 105 348 241 225 197 187 185 181 178 176 177 170 158 155 152 153 154 152 152 142 134 127 108 86 64 47 33 29 24 24 51 60
85 208 132 124 146 141 162 170 147 145 126 210 157 216 255 218 208 200 194 187 188 186 182 174 165 163 164 165 156 149 147 143 136 127 125 130 129 134 179 179 59 37 44 58
155 150 128 132 177 147 167 155 140 142 131 92 204 189 270 200 212 214 203 195 193 189 185 182 175 171 167 159 151 147 142 139 135 129 135 131 129 145 147 108 74 47 31 41
165 178 169 173 141 126 119 92 72 61 76 271 214 185 260 214 210 204 201 194 191 188 185 179 175 161 154 149 147 146 143 146 142 137 138 140 143 142 130 125 109 57 32 29
10 347 215 135 98 62 101 101 78 30 360 259 214 198 248 230 210 198 194 194 189 184 177 173 172 168 162 160 159 154 150 152 152 145 148 155 154 151 153 161 156 143 113 78
149 252 222 177 157 164 175 137 148 168 217 278 243 235 259 246 201 188 185 183 180 181 178 178 180 176 169 168 166 162 159 162 165 160 163 166 158 152 160 168 164 164 172 180
169 231 230 189 165 143 139 158 167 139 191 273 268 274 302 15 147 166 169 171 179 182 180 179 179 178 175 174 176 172 166 164 171 170 165 168 167 156 161 169 166 169 174 163
148 175 243 184 105 86 153 151 107 121 150 286 297 264 245 220 191 182 178 182 186 183 180 179 181 182 182 180 178 172 168 170 174 172 174 173 175 168 164 158 163 167 165 139
132 140 278 136 180 194 148 137 129 134 164 164 257 274 237 205 194 185 187 187 184 183 184 184 184 185 181 174 172 172 173 168 170 173 174 165 170 165 159 163 171 169 158 145
144 121 192 250 246 184 177 180 154 154 223 183 186 269 280 196 182 176 182 185 184 182 182 180 177 175 175 177 177 179 179 177 181 179 171 169 168 161 164 174 177 165 158 155
136 114 86 351 339 289 224 206 172 150 139 162 182 267 313 143 158 172 172 177 177 173 172 169 168 174 180 182 182 184 186 187 181 175 171 170 169 169 176 180 171 159 154 150
119 123 158 191 217 209 231 230 192 150 165 212 221 242 283 197 177 182 178 177 172 174 174 173 179 184 185 185 185 188 192 187 179 175 173 177 181 182 181 175 165 160 153 151
113 154 209 231 239 207 218 224 213 196 192 194 229 222 237 211 190 187 180 174 168 176 181 183 184 187 187 187 189 191 192 187 179 174 179 186 185 179 169 166 167 163 157 158
119 157 198 288 272 240 238 236 222 220 216 213 215 247 240 211 168 169 173 170 177 187 191 190 187 185 188 190 191 189 189 187 175 178 187 179 173 170 170 173 166 162 163 157
149 145 135 270 296 40 273 236 216 214 214 190 205 228 205 159 178 186 184 180 187 191 190 187 190 192 193 193 188 190 190 176 172 179 181 176 172 171 176 175 165 170 169 156
151 141 145 196 39 231 249 246 200 189 231 207 196 199 183 182 186 181 177 179 188 188 186 189 190 193 194 189 185 179 170 169 175 180 181 180 175 178 175 167 170 174 163 161
157 146 138 138 182 274 291 285 188 163 264 268 185 182 166 139 90 21 212 184 189 189 188 190 189 186 184 182 178 164 165 169 174 185 191 188 180 177 175 178 182 176 163 168
111 119 127 137 164 228 250 269 218 109 320 299 170 157 148 117 119 241 226 189 190 187 185 182 175 166 173 183 169 165 174 177 190 195 194 187 180 179 184 189 185 174 170 183
117 98 141 162 198 253 253 268 96 134 222 256 156 146 148 160 188 202 176 172 178 176 178 169 163 173 186 176 166 174 180 196 200 187 177 174 178 183 185 182 176 171 173 174
180 171 185 155 181 248 260 133 159 199 199 178 146 143 145 158 152 145 154 164 160 161 161 160 166 181 181 170 169 179 197 201 177 165 169 177 180 182 175 165 171 170 169 175
186 187 182 182 205 234 236 180 185 158 150 156 147 149 138 133 144 152 154 158 159 159 164 165 168 172 177 178 177 187 199 174 162 164 176 180 178 181 169 168 173 171 173 183
262 157 133 171 251 238 164 127 130 149 148 150 144 140 132 139 151 151 153 156 158 159 160 154 150 161 184 192 189 189 178 164 161 169 179 178 177 180 176 175 178 179 187 195
224 140 125 173 236 67 355 122 148 116 109 111 111 122 138 134 145 158 162 169 171 167 163 155 162 175 189 184 184 177 166 162 166 173 177 179 182 181 185 191 197 196 205 201
214 170 165 203 207 178 216 226 149 126 125 129 120 101 114 139 154 158 170 176 168 165 159 155 162 170 179 174 178 178 171 167 167 174 179 181 180 181 182 186 226 243 228 226